Hourly Data Report for October 27, 2013

All times are specified in Local Standard Time (LST). Add 1 hour to adjust for Daylight Saving Time where and when it is observed.

CHARLOTTETOWN A
PRINCE EDWARD ISLAND

46°17'21.000" N
63°07'09.000" W
48.50 m
8300301
71706
YYG

Download Data

Hourly Data (October 2013)
Hourly Data Report for October 27, 2013
Temp Definition
°C
Dew Point Temp Definition
°C
Rel Hum Definition
%
Wind Dir Definition
10's deg

Wind Spd Definition
km/h
Visibility Definition
km
Stn Press Definition
kPa
Hmdx Definition


Wind Chill Definition


Weather Definition


TIME
00:00 Legend Double Dagger 5.4 4.1 91 18 16 16.1 100.88     Rain
01:00 Legend Double Dagger 5.2 4.5 95 20 9 12.9 100.84     Moderate Rain
02:00 Legend Double Dagger 5.5 4.8 95 20 4 24.1 100.79     Rain
03:00 Legend Double Dagger 5.6 4.7 94 13 3 24.1 100.70     Rain
04:00 Legend Double Dagger 4.8 4.7 99 8 8 8.1 100.64     Fog
05:00 Legend Double Dagger 4.5 4.4 99 3 4 24.1 100.63     Cloudy
06:00 Legend Double Dagger 4.4 4.3 99 5 2 24.1 100.58     LegendNANA
07:00 Legend Double Dagger 4.4 4.3 99 12 7 24.1 100.54     LegendNANA
08:00 Legend Double Dagger 5.1 5.0 99 13 9 24.1 100.51     Cloudy
09:00 Legend Double Dagger 7.9 7.3 96 17 19 19.3 100.48     Rain
10:00 Legend Double Dagger 7.8 5.5 85 20 27 19.3 100.44     Rain
11:00 Legend Double Dagger 6.8 5.1 89 23 7 12.9 100.38     Rain
12:00 Legend Double Dagger 6.6 5.4 92 22 6 16.1 100.27     Rain
13:00 Legend Double Dagger 6.5 5.1 91 1 1 19.3 100.14     Rain
14:00 Legend Double Dagger 6.5 5.5 93 34 3 24.1 100.09     Rain Showers
15:00 Legend Double Dagger 6.6 5.6 93 31 6 19.3 100.10     Rain Showers
16:00 Legend Double Dagger 6.5 5.5 93 29 9 24.1 100.12     Rain Showers
17:00 Legend Double Dagger 5.8 4.8 93 30 9 24.1 100.11     Mostly Cloudy
18:00 Legend Double Dagger 5.1 4.1 93 27 10 24.1 100.17     LegendNANA
19:00 Legend Double Dagger 4.1 3.4 95 28 10 24.1 100.24     LegendNANA
20:00 Legend Double Dagger 3.7 2.8 94 25 7 24.1 100.29     Mostly Cloudy
21:00 Legend Double Dagger 3.2 2.5 95 22 12 24.1 100.31     LegendNANA
22:00 Legend Double Dagger 3.5 2.8 95 25 7 24.1 100.31     LegendNANA
23:00 Legend Double Dagger 4.4 3.4 93 24 12 24.1 100.34     Mostly Cloudy

Notes on Data Quality.

Legend

  • E = Estimated
  • M = Missing
  • NA = Not Available
  • ‡ = Partner data that is not subject to review by the National Climate Archives
Date modified: